Theta_e
286 285 284 283 283 283 283 283 283 284 285 285 287 286 286 286 285 284 284 284 283 284 286 285 284 284 285 284 284 283 284 285 282 284 286 286 286 288 289 287 288 288 289
284 284 283 282 282 281 281 281 282 282 283 284 285 285 284 285 284 283 283 283 281 282 284 285 284 284 282 282 281 281 281 283 283 281 283 283 284 286 286 282 285 286 287
283 281 281 280 280 280 280 280 281 281 281 282 284 283 282 283 283 283 283 282 281 282 283 283 283 281 280 279 281 280 280 282 282 282 279 281 282 283 279 280 281 283 285
281 280 279 279 279 279 279 280 280 280 280 281 282 281 282 282 282 283 282 281 280 280 281 281 282 280 278 278 280 280 280 280 280 279 278 278 279 281 278 276 276 279 279
280 279 278 279 278 279 279 279 279 279 279 280 280 280 280 280 282 282 281 280 278 278 279 279 280 281 281 280 280 280 279 278 278 276 276 277 277 276 275 276 275 276 277
279 278 278 278 278 278 279 279 279 278 278 278 278 278 278 279 282 284 283 281 279 278 277 278 278 280 279 280 281 282 280 277 277 276 276 276 276 276 276 275 273 272 272
278 278 277 277 277 277 278 278 277 276 277 277 277 277 277 278 282 283 282 281 279 278 277 277 277 278 278 277 279 281 279 280 280 277 275 276 276 276 275 274 272 272 271
277 276 276 276 276 277 277 276 275 275 276 276 277 277 277 278 281 282 282 279 279 278 278 277 277 276 277 277 278 278 277 276 278 277 276 276 277 277 276 274 273 272 272
275 275 275 276 276 275 275 274 274 274 275 276 277 276 277 277 280 281 280 278 278 278 278 278 277 276 277 280 277 277 275 275 278 277 277 277 278 277 276 273 269 268 266
274 275 275 275 275 274 274 273 273 274 274 275 275 275 275 276 278 279 279 277 276 276 277 278 278 276 279 279 277 275 273 274 272 272 271 272 273 273 274 272 271 266 266
274 274 274 273 273 273 272 271 272 271 272 271 272 273 273 274 274 277 278 276 275 275 276 275 276 278 278 278 278 273 274 275 270 268 267 268 270 270 271 271 271 270 266
273 272 271 270 271 272 267 268 267 267 267 268 268 269 272 273 274 275 277 277 277 275 274 275 276 277 277 276 274 275 275 272 268 265 265 266 266 267 268 269 269 269 269
269 268 267 267 269 270 265 267 266 265 265 267 268 269 270 272 272 275 276 276 277 275 274 276 275 275 274 271 272 273 269 266 265 262 263 264 265 267 267 266 267 266 267
265 267 267 266 267 266 268 268 265 265 265 267 267 267 268 270 270 271 272 273 275 274 275 270 271 270 269 269 267 267 267 266 265 264 263 263 264 264 263 264 262 263 261
266 267 267 267 265 266 267 266 268 269 268 265 262 266 267 267 270 275 275 273 273 275 266 257 260 260 262 262 261 261 262 263 262 262 261 261 261 262 261 262 261 260 254
266 267 266 265 264 265 264 265 270 271 272 273 273 272 271 273 274 275 275 275 275 274 256 253 256 260 260 261 261 261 261 261 261 261 260 259 259 259 259 259 259 252 256
264 265 264 264 263 262 261 261 261 265 269 270 270 271 272 272 272 273 274 274 270 267 253 253 258 259 260 260 260 260 260 261 260 259 258 258 258 258 257 257 257 257 256
261 262 260 260 260 259 260 260 258 256 259 261 265 267 269 270 271 272 272 267 257 258 250 251 254 256 258 259 259 258 259 258 258 257 257 257 255 255 255 255 255 254 255
262 261 259 259 258 259 257 255 254 253 255 256 257 261 262 266 268 268 267 251 249 251 254 254 253 254 256 256 257 256 256 256 256 256 255 254 254 248 253 254 254 254 254
260 261 260 258 257 256 254 253 252 253 255 255 255 254 252 252 252 249 249 247 247 251 253 253 254 254 253 252 254 254 254 254 253 252 252 252 253 250 252 253 253 253 253
260 259 260 258 257 255 254 253 254 256 254 254 254 254 265 258 250 250 252 252 251 251 253 252 254 254 254 251 251 252 252 252 253 253 251 253 252 248 251 252 252 253 252
261 261 259 259 258 258 256 256 256 255 253 252 254 250 263 249 250 250 250 251 252 251 251 251 252 251 253 253 253 253 252 252 253 252 251 251 252 253 253 252 251 251 251
260 260 258 257 257 257 255 253 253 253 253 252 251 251 249 250 250 250 250 251 251 251 251 248 249 252 251 250 250 251 251 252 253 253 252 252 253 253 254 253 252 251 251
261 259 259 258 256 254 253 253 253 253 252 252 249 249 249 249 249 250 251 252 250 251 248 249 250 250 251 251 252 252 250 251 252 253 252 252 252 253 253 253 252 252 252
259 258 258 257 255 254 252 253 253 251 251 250 249 246 247 248 248 249 250 250 250 251 251 249 249 250 250 250 251 251 252 253 253 254 254 253 253 253 253 253 253 253 253
257 257 256 254 253 252 252 253 253 251 251 251 249 248 247 248 249 249 250 250 250 250 250 251 250 249 248 250 251 252 256 258 258 259 259 258 257 255 254 254 254 254 254
Wind_Speed
5 5 5 5 6 6 6 7 7 6 7 8 8 8 9 7 8 7 8 9 10 9 8 9 10 10 9 8 9 9 8 8 10 15 11 12 16 12 13 14 13 13 11
5 5 7 6 6 6 6 6 6 7 7 7 7 7 8 5 6 8 9 9 10 10 10 10 10 9 9 8 8 11 10 11 11 16 14 12 14 12 12 15 12 11 11
6 5 5 5 5 6 5 6 6 7 6 6 7 7 7 7 5 7 7 9 10 10 10 10 10 9 8 8 9 9 10 10 11 7 13 11 11 10 12 10 12 13 9
4 3 4 5 5 4 5 5 6 5 5 7 6 6 7 7 6 6 7 7 9 9 9 10 10 9 8 11 10 9 11 11 8 8 9 11 10 9 8 11 13 10 12
2 3 3 4 4 4 5 5 5 5 6 6 6 6 6 6 5 7 5 8 8 9 8 9 10 9 13 16 10 10 11 10 9 8 9 10 9 11 13 10 13 10 13
2 3 3 4 4 3 4 4 4 5 5 4 5 5 7 6 14 15 13 6 7 8 9 9 10 10 12 20 21 21 16 12 12 8 9 11 10 9 9 9 10 12 9
1 1 2 2 2 3 3 3 5 6 6 6 6 6 6 6 15 16 17 7 5 7 8 8 9 8 10 12 17 19 12 18 17 11 13 11 11 9 11 11 12 11 10
2 1 1 2 2 3 3 4 5 4 5 6 6 6 7 7 16 16 17 9 5 7 7 7 8 10 10 15 15 12 8 10 9 8 11 12 9 10 10 9 10 11 10
3 2 2 3 3 3 4 4 5 5 5 5 6 7 7 8 16 18 15 8 9 9 9 5 7 10 20 24 15 13 10 10 10 17 18 19 18 17 14 7 7 8 7
4 4 3 2 3 3 4 4 3 4 6 6 8 7 8 8 15 17 15 8 11 8 9 8 11 13 21 24 14 8 11 10 10 12 11 12 11 11 15 8 7 7 7
4 3 3 2 3 4 3 2 3 5 5 5 7 6 7 6 9 17 17 9 9 9 8 8 6 18 22 22 20 9 12 12 11 7 7 7 7 7 6 7 9 7 6
4 3 2 3 3 3 3 3 3 4 4 5 5 5 4 6 11 13 17 16 16 9 9 8 8 18 21 21 14 19 18 14 5 5 6 6 7 8 8 8 8 8 7
3 3 3 3 4 3 3 4 3 2 3 4 4 5 6 5 5 15 18 17 17 11 9 14 15 17 17 11 15 15 9 5 5 4 6 6 7 7 10 9 7 8 8
5 5 3 4 4 3 2 3 2 3 3 4 5 5 6 6 6 7 7 6 9 10 12 6 10 12 11 10 7 8 5 6 6 6 6 7 6 6 6 6 7 8 7
5 4 4 3 3 3 3 3 3 3 4 4 3 4 5 6 7 16 14 7 7 10 3 3 4 4 6 5 4 4 4 5 5 5 5 7 7 7 7 6 5 6 2
5 4 3 3 3 3 3 4 7 10 11 13 13 10 5 15 19 20 19 20 14 19 4 3 3 5 5 6 6 7 6 5 4 6 6 5 6 7 7 7 5 2 6
7 4 3 4 2 3 2 2 5 6 11 10 11 15 16 16 18 18 18 17 17 13 1 3 5 5 6 6 6 6 7 7 6 5 6 6 6 7 7 7 7 6 8
6 6 3 3 3 3 3 3 2 2 5 6 9 14 14 16 17 17 16 15 7 6 1 3 5 5 6 6 6 6 7 7 6 5 6 6 5 5 7 7 7 7 8
5 4 4 4 3 3 2 2 2 2 3 5 5 8 8 16 16 12 16 1 3 4 5 5 4 4 6 5 6 6 6 7 7 7 6 6 5 2 7 7 7 9 9
5 6 4 3 2 2 2 2 2 3 4 4 4 5 4 3 3 4 2 2 3 4 5 5 6 5 5 5 6 6 7 7 6 5 5 5 6 4 7 8 7 8 8
4 3 5 3 3 3 3 3 3 3 4 4 5 4 16 2 3 3 5 5 5 5 6 5 6 6 5 5 5 6 6 7 7 7 5 6 5 5 5 6 7 7 8
4 4 4 4 3 3 3 3 3 3 4 4 5 4 14 2 4 5 5 6 6 5 5 6 6 5 6 6 7 7 7 8 7 6 6 6 6 7 7 7 7 7 8
5 5 4 3 3 4 3 3 3 3 4 4 4 5 4 5 5 5 6 6 5 5 5 4 5 7 5 5 5 6 8 9 8 7 8 8 8 8 7 8 8 8 8
5 5 5 4 3 3 3 3 3 4 4 4 4 4 4 5 6 7 7 6 5 6 4 5 5 8 8 8 7 7 6 8 7 8 9 9 9 9 8 8 8 10 10
5 5 4 4 4 4 3 3 3 3 3 3 4 3 4 5 6 6 6 6 6 6 7 5 5 8 11 12 13 15 14 16 12 12 8 10 12 13 10 9 10 10 12
4 4 3 3 3 3 3 3 4 3 4 4 4 4 5 6 6 6 7 7 7 7 9 7 8 11 12 12 14 14 16 17 15 16 12 10 10 10 9 11 14 9 12
Wind_Direction
45 45 47 36 30 27 27 18 11 1 358 9 359 9 17 23 11 4 4 5 352 345 338 4 356 348 338 344 338 328 318 310 296 301 311 322 321 327 330 337 322 323 329
41 41 36 28 24 23 16 6 2 1 4 355 353 13 8 356 10 4 2 357 348 340 333 346 338 344 337 348 332 333 322 313 311 297 315 324 323 334 341 328 327 324 327
36 36 24 20 21 16 4 357 3 6 350 349 4 9 356 347 345 355 358 353 342 341 345 341 341 346 342 335 324 331 328 320 303 319 311 317 314 328 335 326 327 317 324
42 37 30 14 15 3 1 4 4 350 356 358 0 355 349 335 336 346 358 356 344 340 343 336 333 342 342 331 327 325 333 321 323 315 306 311 318 340 330 329 332 328 321
78 48 25 9 7 3 3 359 349 357 358 349 352 347 339 341 338 340 343 348 341 336 334 335 330 318 336 335 330 327 332 324 315 323 317 317 328 336 339 333 323 326 320
66 36 11 5 357 357 347 339 345 347 335 333 349 344 341 341 330 338 339 339 330 331 332 331 329 317 331 329 324 328 335 328 322 324 322 320 324 330 331 333 327 334 336
142 31 4 356 348 349 333 348 357 345 335 333 327 323 317 316 329 330 337 328 320 316 313 316 328 331 329 320 317 327 324 327 323 334 319 326 329 345 335 332 333 325 312
214 273 344 353 332 334 340 351 333 320 313 313 307 310 311 308 330 329 329 325 295 296 294 298 311 323 326 319 319 318 322 318 325 339 325 323 326 332 335 341 324 315 310
242 276 297 299 314 335 332 329 319 321 319 316 320 315 311 316 328 328 328 327 317 315 315 310 310 327 319 329 327 318 328 319 341 338 336 330 333 339 343 340 343 343 331
234 237 253 296 317 313 313 315 297 302 307 316 317 319 315 318 333 329 331 329 314 321 321 317 316 320 327 329 325 348 327 323 349 346 338 334 334 332 348 352 335 335 331
218 240 259 277 287 275 290 280 288 301 311 306 307 306 301 315 326 329 331 329 320 312 322 316 310 315 329 330 335 334 316 351 349 334 321 323 328 334 338 340 339 335 318
210 239 263 270 276 274 264 278 289 287 299 303 295 299 300 301 315 324 328 328 320 322 316 313 297 328 334 330 337 324 335 344 324 317 324 329 330 331 331 330 327 323 306
187 229 247 266 266 257 252 284 292 289 283 295 299 305 309 312 298 311 315 314 324 322 310 312 346 340 333 335 330 334 351 324 321 318 323 321 320 315 319 322 325 318 308
215 236 241 246 270 273 272 264 258 276 282 289 297 296 302 310 312 297 278 275 298 307 305 355 334 335 336 336 324 333 328 331 326 323 320 314 310 319 322 322 324 331 321
221 234 242 232 236 267 267 252 263 251 257 269 249 266 305 309 299 311 318 318 311 320 45 11 352 330 328 329 319 295 295 311 313 316 316 313 313 316 315 322 310 318 277
221 226 222 227 248 252 268 289 286 295 308 312 313 318 305 311 314 320 321 319 344 333 36 345 308 312 314 317 316 314 313 310 307 317 309 303 307 311 311 313 299 274 295
219 222 216 228 224 239 255 266 302 312 312 317 326 326 321 316 322 319 317 332 351 358 21 298 309 306 304 307 307 306 306 308 309 298 297 302 306 308 308 308 306 301 302
214 222 208 212 224 229 233 240 241 273 308 311 321 327 325 326 321 323 334 358 342 348 266 269 287 292 299 302 303 302 302 303 300 295 297 295 290 291 307 302 298 294 295
211 220 209 215 221 227 228 258 260 274 271 280 313 320 314 322 324 340 344 132 265 296 294 291 268 270 282 285 291 292 289 292 290 292 290 286 285 254 290 286 287 286 286
212 220 196 206 212 228 232 249 262 254 273 278 290 284 298 329 332 316 292 261 271 271 275 272 280 270 265 264 281 283 289 291 285 277 276 272 280 254 276 285 286 289 290
192 189 209 202 194 199 216 226 230 247 259 271 277 268 297 331 300 285 294 291 279 278 280 272 282 281 282 271 269 279 276 280 279 279 270 277 273 275 265 266 280 278 280
180 198 196 210 195 224 224 223 238 249 251 268 286 280 316 331 288 277 278 276 270 259 260 271 283 277 283 286 288 287 286 282 282 275 273 273 275 275 277 271 277 276 278
181 189 190 196 207 218 229 223 237 243 262 263 270 290 302 295 284 278 278 282 275 279 279 264 271 290 276 263 253 252 271 275 274 274 280 282 281 278 276 277 278 278 274
178 188 192 202 194 213 225 241 244 257 261 277 285 282 279 278 282 288 288 288 283 286 263 269 270 274 285 285 278 274 254 262 264 265 251 262 270 275 270 268 269 268 271
173 178 190 193 201 217 233 245 257 253 256 261 276 264 272 275 279 280 284 283 283 290 290 279 271 275 277 282 283 284 279 282 270 264 259 251 254 260 262 265 269 272 270
167 173 184 178 206 205 217 257 260 254 268 274 262 268 269 277 282 283 288 292 292 293 294 290 281 278 281 285 283 283 287 290 289 275 259 253 252 254 252 257 264 262 268